www.pogodaiklimat.ru

Погода и климат >> Архив погоды >> Норвегия >> Остров Карла XII


ПОГОДА на Острове Карла XII

  • Прогноз погоды на Острове Карла XII
  • Монитор погоды на Острове Карла XII

АРХИВ ПОГОДЫ на Острове Карла XII

Время (UTC), дата Ветер
(напр.,м/с)
 
Видим.   Явления Облачность Т
(С)
Тd
(С)
f
(%)
Тe
(С)
Тes
(С)
Комфортность P
(гПа)
Po
(гПа)
Тmin
(С)
Tmax
(С)
R
(мм)
R24
(мм)
S
(см)
07 19.06 СЗ 4
{5}
н/о н/о -0.3 -1.8 90 -6 -6 1008.3 1007.6
08 19.06 С 5
{6}
н/о н/о 0.0 -1.8 88 -6 -6 1008.6 1007.9
09 19.06 СЗ 6
{7}
н/о н/о 0.0 -1.5 90 -7 -7 1008.9 1008.2
10 19.06 С 5
{7}
н/о н/о +0.2 -1.4 89 -6 -6 1009.4 1008.7
11 19.06 СЗ 5
{6}
н/о н/о +0.2 -1.4 89 -6 -6 1009.5 1008.8
12 19.06 СЗ 5
{7}
н/о н/о +0.2 -1.2 90 -6 -6 1009.7 1009.0
13 19.06 С 4
{7}
н/о н/о +0.3 -1.7 86 -5 -5 1010.1 1009.4
14 19.06 С 5
{7}
н/о н/о +0.3 -2.4 82 -6 -6 1010.3 1009.6
15 19.06 С 5
{8}
н/о н/о -0.3 -2.2 87 -6 -6 1010.5 1009.8
16 19.06 С 6
{8}
н/о н/о -0.5 -2.4 87 -7 -7 1010.5 1009.8
17 19.06 СЗ 5
{7}
н/о н/о -0.3 -1.8 90 -7 -7 1010.7 1010.0
18 19.06 СЗ 3
{8}
н/о н/о -0.4 -1.5 92 -5 -5 1010.9 1010.2 -0.6 +0.5
19 19.06 СЗ 4
{5}
н/о н/о -0.5 -1.9 90 -6 -6 1011.1 1010.4
20 19.06 СЗ 3
{4}
н/о н/о -0.6 -2.0 90 -5 -5 1011.2 1010.5
21 19.06 СЗ 2
{4}
н/о н/о -0.7 -1.8 92 -5 -5 1011.5 1010.8
22 19.06 СЗ 3
{4}
н/о н/о -0.9 -2.3 90 -6 -6 1011.6 1010.9
23 19.06 СЗ 2
{4}
н/о н/о -1.4 -2.5 92 -5 -5 1011.8 1011.1
00 20.06 СЗ 2
{5}
н/о н/о -1.4 -3.2 88 -5 -5 1011.8 1011.1
01 20.06 СЗ 1
{3}
н/о н/о -1.7 -3.4 88 -4 -4 1012.0 1011.3
02 20.06 СЗ 1
{2}
н/о н/о -1.6 -3.1 89 -4 -4 1012.4 1011.7
03 20.06 штиль 0
{1}
н/о н/о -1.6 -3.1 89 -3 -3 1012.5 1011.8
04 20.06 штиль 0
{1}
н/о н/о -1.8 -3.3 89 -3 -3 1012.5 1011.8
05 20.06 СЗ 1
{2}
н/о н/о -1.7 -3.0 91 -4 -4 1012.6 1011.9
06 20.06 ЮЗ 1
{3}
н/о н/о -1.9 -3.2 91 -4 -4 1012.8 1012.1 -2.4 -0.4
07 20.06 Ю 1
{2}
н/о н/о -1.7 -2.8 92 -4 -4 1013.0 1012.3
08 20.06 Ю 1
{2}
н/о н/о -1.7 -3.1 90 -4 -4 1013.3 1012.6
09 20.06 ЮВ 2
{2}
н/о н/о -1.9 -3.2 91 -6 -6 1013.4 1012.7
10 20.06 ЮВ 2
{3}
н/о н/о -1.5 -2.6 92 -5 -5 1013.8 1013.1
11 20.06 ЮВ 2
{3}
н/о н/о -1.4 -2.4 93 -5 -5 1014.0 1013.3
12 20.06 ЮВ 3
{4}
н/о н/о -1.5 -2.5 93 -7 -7 1014.4 1013.7
13 20.06 Ю 1
{3}
н/о н/о +0.2 -2.0 85 -2 -2 1014.5 1013.8
14 20.06 ЮВ 1
{2}
н/о н/о +0.4 -1.7 86 -2 -2 1014.9 1014.2
15 20.06 ЮВ 1
{2}
н/о н/о +0.6 -1.6 85 -1 -1 1014.9 1014.2
16 20.06 Ю 1
{2}
н/о н/о +1.4 -1.5 81 -0 -0 1014.9 1014.3
17 20.06 ЮВ 1
{2}
н/о н/о +0.9 -1.8 82 -1 -1 1015.0 1014.3
18 20.06 ЮЗ 2
{3}
н/о н/о +1.1 -1.6 82 -2 -2 1014.9 1014.2 -2.3 +1.6
19 20.06 Ю 2
{3}
н/о н/о +1.7 -1.5 79 -2 -2 1015.1 1014.4
20 20.06 ЮЗ 3
{4}
н/о н/о +1.2 -1.8 80 -3 -3 1015.1 1014.5
21 20.06 Ю 3
{3}
н/о н/о +1.7 -1.4 80 -3 -3 1015.3 1014.6
22 20.06 штиль 0
{3}
н/о н/о +0.6 -1.6 85 -1 -1 1015.2 1014.5
23 20.06 СЗ 3
{5}
н/о н/о +0.2 -2.0 85 -4 -4 1015.3 1014.6
00 21.06 штиль 0
{5}
н/о н/о +0.9 -1.8 82 -0 -0 1015.3 1014.6
01 21.06 штиль 0 н/о н/о +1.5 -1.4 81 +1 +1 1015.2 1014.5
02 21.06 штиль 0
{1}
н/о н/о +1.8 -1.4 79 +1 +1 1015.2 1014.5
03 21.06 штиль 0
{2}
н/о н/о +1.3 -1.4 82 0 0 1015.3 1014.6
04 21.06 штиль 0
{1}
н/о н/о +2.0 -1.4 78 +1 +1 1015.2 1014.5
05 21.06 З 1
{1}
н/о н/о +2.1 -1.7 76 +1 +1 1014.9 1014.3
06 21.06 штиль 0
{2}
н/о н/о +2.7 -1.6 73 +2 +2 1014.8 1014.1 +0.2 +2.9
07 21.06 ЮЗ 1
{2}
н/о н/о +1.2 -1.5 82 -1 -1 1014.8 1014.1
08 21.06 Ю 2
{3}
н/о н/о +1.5 -1.6 80 -2 -2 1014.6 1013.9
09 21.06 ЮЗ 3
{3}
н/о н/о +1.7 -1.2 81 -3 -3 1014.7 1014.0
10 21.06 Ю 2
{3}
н/о н/о +2.2 -1.0 79 -1 -1 1014.6 1013.9
11 21.06 ЮЗ 2
{3}
н/о н/о +2.2 -0.7 81 -1 -1 1014.6 1013.9
12 21.06 ЮЗ 2
{3}
н/о н/о +2.3 -0.8 80 -1 -1 1014.6 1013.9
13 21.06 ЮЗ 2
{3}
н/о н/о +2.8 -0.6 78 -0 -0 1014.7 1014.1
14 21.06 ЮЗ 2
{2}
н/о н/о +2.8 -0.6 78 -0 -0 1014.7 1014.0
15 21.06 З 1
{2}
н/о н/о +2.6 -0.5 80 +1 +1 1014.5 1013.8
16 21.06 ЮЗ 2
{3}
н/о н/о +2.2 -0.2 84 -1 -1 1014.4 1013.7
17 21.06 ЮЗ 2
{3}
н/о н/о +2.1 -1.0 80 -1 -1 1014.0 1013.3
18 21.06 ЮЗ 2
{3}
н/о н/о +1.6 -1.0 83 -2 -2 1013.9 1013.2 +1.0 +3.2
20 21.06 ЮЗ 2
{3}
н/о н/о +1.1 -0.7 88 -2 -2 1013.7 1013.0
21 21.06 ЮЗ 2
{4}
н/о н/о +1.0 -0.7 88 -3 -3 1013.6 1012.9
22 21.06 ЮЗ 2
{3}
н/о н/о +0.9 -0.8 88 -3 -3 1013.3 1012.7
23 21.06 штиль 0
{3}
н/о н/о +1.2 -0.6 88 0 0 1013.4 1012.7
00 22.06 З 1 н/о н/о +1.1 -0.7 88 -1 -1 1013.2 1012.5
01 22.06 ЮЗ 1
{2}
н/о н/о +1.2 -0.4 89 -1 -1 1013.2 1012.5
03 22.06 З 2
{2}
н/о н/о +1.5 -0.1 89 -2 -2 1013.1 1012.4
05 22.06 ЮЗ 2
{2}
н/о н/о +1.7 +0.1 89 -2 -2 1012.9 1012.2
06 22.06 ЮЗ 2 н/о н/о +1.9 +0.3 89 -1 -1 1012.9 1012.2
07 22.06 З 3
{5}
н/о н/о +2.3 +0.7 89 -2 -2 1013.1 1012.4
08 22.06 З 3
{5}
н/о н/о +2.1 +0.8 91 -2 -2 1013.4 1012.7
09 22.06 З 3
{5}
н/о н/о +1.9 +1.0 94 -3 -3 1013.5 1012.8
10 22.06 ЮЗ 2
{3}
н/о н/о +1.6 +0.7 94 -2 -2 1013.8 1013.2
11 22.06 З 3
{3}
н/о н/о +1.5 +0.6 94 -3 -3 1014.0 1013.4
12 22.06 З 3
{5}
н/о н/о +1.5 +0.6 94 -3 -3 1014.5 1013.8
13 22.06 З 3
{4}
н/о н/о +1.4 +0.5 94 -3 -3 1014.9 1014.2
14 22.06 З 3
{4}
н/о н/о +1.4 +0.4 93 -3 -3 1015.0 1014.3
15 22.06 З 3
{5}
н/о н/о +1.5 +0.5 93 -3 -3 1015.3 1014.6
16 22.06 ЮЗ 4
{5}
н/о н/о +1.5 +0.8 95 -4 -4 1015.4 1014.7
17 22.06 З 4
{5}
н/о н/о +1.5 +1.1 97 -4 -4 1015.5 1014.8
18 22.06 З 2
{5}
н/о н/о +1.2 +0.8 97 -2 -2 1015.5 1014.8 +1.2 +2.6
19 22.06 ЮЗ 2
{3}
н/о н/о +1.1 +0.7 97 -3 -3 1015.5 1014.8
20 22.06 З 2
{2}
н/о н/о +1.3 +0.9 97 -2 -2 1015.5 1014.9
21 22.06 ЮЗ 1
{2}
н/о н/о +1.1 +0.7 97 -1 -1 1015.7 1015.0
22 22.06 Ю 1
{2}
н/о н/о +1.4 +0.8 96 -1 -1 1016.1 1015.4
23 22.06 ЮЗ 1
{1}
н/о н/о +1.4 +0.5 94 -1 -1 1016.2 1015.5
00 23.06 ЮЗ 2
{3}
н/о н/о +1.7 +0.8 94 -2 -2 1016.1 1015.4
01 23.06 ЮЗ 1
{2}
н/о н/о +1.9 +0.7 92 0 0 1016.3 1015.6
02 23.06 ЮЗ 1
{1}
н/о н/о +1.7 +0.4 91 -0 -0 1016.4 1015.7
03 23.06 ЮЗ 1
{2}
н/о н/о +1.7 +0.6 92 -0 -0 1016.4 1015.8
05 23.06 З 1
{2}
н/о н/о +1.8 +0.8 93 -0 -0 1016.6 1015.9
06 23.06 З 1 н/о н/о +1.7 +0.6 92 -0 -0 1016.6 1015.9
07 23.06 З 1
{2}
н/о н/о +1.9 +0.9 93 0 0 1016.8 1016.1
08 23.06 ЮЗ 2
{2}
н/о н/о +1.9 +0.6 91 -2 -2 1017.1 1016.4
09 23.06 З 1
{3}
н/о н/о +2.1 +0.6 90 0 0 1017.5 1016.8
10 23.06 З 1
{2}
н/о н/о +2.2 +0.7 90 0 0 1017.8 1017.1
11 23.06 З 2
{2}
н/о н/о +1.6 +0.5 92 -2 -2 1018.0 1017.3
12 23.06 З 2
{3}
н/о н/о +1.4 +0.5 94 -2 -2 1018.1 1017.5
13 23.06 З 2
{2}
н/о н/о +1.2 +0.6 96 -2 -2 1018.3 1017.6
14 23.06 СЗ 1
{3}
н/о н/о +1.1 +0.7 97 -1 -1 1018.5 1017.8
15 23.06 СЗ 2
{2}
н/о н/о +1.0 +0.6 97 -3 -3 1018.6 1017.9
16 23.06 СЗ 2
{2}
н/о н/о +0.8 +0.4 97 -3 -3 1018.6 1017.9
17 23.06 СЗ 2
{2}
н/о н/о +0.6 +0.2 97 -3 -3 1018.6 1017.9
18 23.06 штиль 0
{3}
н/о н/о +0.7 +0.3 97 -1 -1 1018.7 1018.0 +0.6 +2.4
19 23.06 З 1
{1}
н/о н/о +0.5 +0.1 97 -2 -2 1018.6 1017.9
20 23.06 СЗ 1
{1}
н/о н/о +0.5 +0.2 98 -2 -2 1018.7 1018.0
21 23.06 СЗ 1
{2}
н/о н/о +0.4 +0.1 98 -2 -2 1018.6 1017.9
22 23.06 СЗ 2
{3}
н/о н/о +0.3 0.0 98 -4 -4 1018.6 1017.9
23 23.06 СЗ 2
{3}
н/о н/о +0.4 +0.1 98 -3 -3 1018.6 1017.9
00 24.06 СЗ 1
{4}
н/о н/о +0.5 +0.2 98 -2 -2 1018.4 1017.7
01 24.06 СЗ 2
{3}
н/о н/о +0.6 +0.3 98 -3 -3 1018.3 1017.6
02 24.06 З 1
{2}
н/о н/о +0.4 +0.1 98 -2 -2 1018.2 1017.5
04 24.06 СЗ 1
{2}
н/о н/о +0.6 +0.3 98 -2 -2 1017.7 1017.0
05 24.06 З 1
{2}
н/о н/о +0.5 +0.1 97 -2 -2 1017.3 1016.6
06 24.06 СЗ 1 н/о н/о +0.8 +0.4 97 -1 -1 1017.1 1016.4
07 24.06 СЗ 1
{2}
н/о н/о +1.0 +0.6 97 -1 -1 1016.8 1016.1
08 24.06 СЗ 1
{2}
н/о н/о +0.8 +0.2 96 -1 -1 1016.8 1016.1
09 24.06 СЗ 2
{2}
н/о н/о +0.9 +0.3 96 -3 -3 1016.6 1015.9
11 24.06 штиль 0
{1}
н/о н/о +1.8 +0.6 92 +1 +1 1016.2 1015.5
12 24.06 штиль 0 н/о н/о +1.5 +0.2 91 0 0 1016.0 1015.3
13 24.06 З 1
{1}
н/о н/о +0.8 -0.2 93 -1 -1 1015.7 1015.0
14 24.06 штиль 0
{1}
н/о н/о +1.2 +0.1 92 0 0 1015.5 1014.8
15 24.06 штиль 0 н/о н/о +1.9 +0.6 91 +1 +1 1015.2 1014.5
16 24.06 штиль 0 н/о н/о +2.0 +0.4 89 +1 +1 1014.7 1014.1
17 24.06 штиль 0 н/о н/о +1.2 +0.1 92 0 0 1014.4 1013.7
18 24.06 штиль 0
{1}
н/о н/о +1.6 +0.3 91 0 0 1013.9 1013.2
19 24.06 штиль 0 н/о н/о +1.0 -0.1 92 -0 -0 1013.8 1013.1
22 24.06 штиль 0
{1}
н/о н/о +0.1 -0.5 96 -1 -1 1012.9 1012.2
23 24.06 СВ 1
{2}
н/о н/о 0.0 -0.4 97 -2 -2 1012.4 1011.7
00 25.06 СВ 1 н/о н/о -0.2 -0.6 97 -2 -2 1012.1 1011.4
01 25.06 СВ 1
{2}
н/о н/о -0.4 -0.9 96 -3 -3 1011.8 1011.2
03 25.06 СВ 1
{1}
н/о н/о -0.4 -1.1 95 -3 -3 1011.3 1010.6
04 25.06 СВ 1
{2}
н/о н/о -0.2 -1.3 92 -2 -2 1010.9 1010.2
05 25.06 СВ 1
{2}
н/о н/о -0.4 -1.5 92 -3 -3 1010.5 1009.8
06 25.06 СВ 1 н/о н/о -0.5 -1.5 93 -3 -3 1010.3 1009.6
07 25.06 СВ 1
{1}
н/о н/о -0.2 -1.9 88 -2 -2 1010.0 1009.3
08 25.06 штиль 0
{1}
н/о н/о +0.3 -2.1 84 -1 -1 1009.9 1009.2
09 25.06 штиль 0
{1}
н/о н/о +0.8 -2.1 81 -0 -0 1009.6 1008.9
11 25.06 штиль 0
{1}
н/о н/о +0.6 -2.1 82 -0 -0 1009.5 1008.8
12 25.06 С 1 н/о н/о +0.1 -2.1 85 -2 -2 1009.3 1008.6
13 25.06
{2}
н/о н/о -0.7 -1.7 93 1009.0 1008.4
14 25.06 СЗ 1
{2}
н/о н/о -0.8 -1.8 93 -3 -3 1009.0 1008.3
15 25.06 СЗ 1
{2}
н/о н/о -0.8 -1.9 92 -3 -3 1008.7 1008.0
16 25.06 СЗ 2
{2}
н/о н/о -1.0 -1.9 94 -5 -5 1008.4 1007.7
17 25.06 СЗ 2
{3}
н/о н/о -1.3 -2.0 95 -5 -5 1008.1 1007.4
18 25.06 СЗ 2
{3}
н/о н/о -1.3 -1.8 96 -5 -5 1007.8 1007.1
19 25.06 СЗ 2
{3}
н/о н/о -0.9 -1.3 97 -5 -5 1007.5 1006.8
20 25.06 З 3
{4}
н/о н/о -0.6 -0.8 99 -6 -6 1007.0 1006.3
21 25.06 СЗ 3
{4}
н/о н/о -0.4 -0.6 99 -5 -5 1006.8 1006.2
22 25.06 СЗ 3
{4}
н/о н/о -0.1 -0.2 99 -5 -5 1006.4 1005.8
23 25.06 СЗ 3
{4}
н/о н/о +0.1 0.0 99 -5 -5 1006.1 1005.4
00 26.06 СЗ 4
{5}
н/о н/о +0.1 0.0 99 -6 -6 1006.0 1005.3
01 26.06 СЗ 4
{5}
н/о н/о +0.2 +0.1 99 -5 -5 1005.5 1004.8
02 26.06 СЗ 4
{5}
н/о н/о +0.2 +0.1 99 -5 -5 1005.0 1004.3
03 26.06 СЗ 5
{6}
н/о н/о +0.2 +0.1 99 -6 -6 1004.4 1003.7
05 26.06 СЗ 6
{8}
н/о н/о +0.4 +0.1 98 -6 -6 1003.2 1002.5
06 26.06 СЗ 6 н/о н/о +0.6 +0.2 97 -6 -6 1002.6 1001.9
07 26.06 СЗ 6
{8}
н/о н/о +0.8 +0.2 96 -6 -6 1002.0 1001.3
08 26.06 СЗ 7
{8}
н/о н/о +0.9 +0.2 95 -6 -6 1001.7 1001.0

 

Местоположение метеостанции Остров Карла XII (Норвегия): широта 80.65 долгота 25.01 высота над уровнем моря 5 м.

В архиве по умолчанию представлена погода на Острове Карла XII за последнюю неделю. Архивные данные за месяц целиком и за предыдущие месяцы, начиная с января 2011 года, Вы можете получить, выбрав интересующий диапазон дат из раскрывающегося списка и нажав кнопку "Ввод!".


*Определитесь, кто Вы:
робот инопланетянин человек

Внимание! Время в таблицах - всемирное. Для получения местного времени необходимо прибавить поправку, которая равна 1 ч.

Смотрите также архив погоды в соседних городах и на ближайших метеорологических станциях:

Погода на Острове Белый (Норвегия) (137 км)
Погода на Верлегенхукен (Норвегия) (176 км)
Погода на Конгсёйа (Норвегия) (206 км)
Погода на Эдже (Норвегия) (271 км)
Погода в Пирамиде (Норвегия) (280 км)
Погода в Ню-Олесунн (Норвегия) (321 км)
Погода в Свальбард аэропорту (Норвегия) (329 км)
Погода в Баренцбурге (Шпицберген, Россия) (361 км)
Погода на Акселойа (Норвегия) (392 км)
Погода на Хорнсунне (Норвегия) (453 км)

Пояснения к столбцам:

Ветер - указаны скорость ветра в м/с - средняя за 10 мин, порывы в срок и между сроками (в фигурных скобках) и направление, откуда дует ветер: С - северный, СВ - северо-восточный, В - восточный, ЮВ - юго-восточный, Ю - южный, ЮЗ - юго-западный, З - западный, СЗ - северо-западный.
Видимость - горизонтальная дальность видимости в метрах или километрах. При видимости от 1 до 10 км при отсутствии осадков обычно наблюдается дымка, при ухудшении видимости до 1 км и менее - туман. В сухую погоду видимость может ухудшаться дымом, пылью или мглою.
Явления - указаны атмосферные явления, наблюдавшиеся в срок или в последний час перед сроком; фигурными скобками обозначены явления, наблюдавшиеся между сроками (за 1-3 часа до срока); квадратными скобками обозначены град или гололедные отложения с указанием их диаметра в мм.
Облачность - указаны через наклонную черту общая и нижняя облачность в баллах и высота нижней границы облаков в метрах; квадратными скобками обозначены формы облаков: Ci - перистые, Cs - перисто-слоистые, Cc - перисто-кучевые, Ac - высококучевые, As - высокослоистые, Sc - слоисто-кучевые, Ns - слоисто-дождевые, Cu - кучевые, Cb - кучево-дождевые. Подробнее классификацию облаков см. в Атласе облаков (PDF).
T - Температура воздуха - температура, измеренная на высоте 2 м над землей.
Td - Температура точки росы - температура, при понижении до которой содержащийся в воздухе водяной пар достигнет насыщения.
f - Относительная влажность воздуха - влажноcть воздуха, измеренная на высоте 2 м над землей.
Te - Эффективная температура - температура, которую ощущает одетый по сезону человек в тени. Характеристика душности погоды. При расчете учитывается влияние влажности воздуха и скорости ветра на теплоощущения человека.
Tes - Эффективная температура на солнце - температура, которую ощущает человек, с поправкой на солнечный нагрев. Характеристика знойности погоды. Зависит от высоты солнца над горизонтом, облачности и скорости ветра. Ночью, в пасмурную погоду, а также при ветре 12 м/с и более поправка равна нулю.
P - Атмосферное давление - приведенное к уровню моря атмосферное давление.
Po - Атмосферное давление - измеренное на уровне метеостанции атмосферное давление.
Tmin - Минимальная температура - минимум температуры воздуха на высоте 2 м над землей.
Tmax - Максимальная температура - максимум температуры воздуха на высоте 2 м над землей.
R - Количество осадков - Количество выпавших осадков за период времени, мм. При наведении курсора мыши на число - период времени, за который выпало указанное количество осадков.
R24 - Количество осадков - Количество выпавших осадков за 24 часа, мм.
S - Снежный покров - Высота снежного покрова, см. При наведении курсора мыши на число - состояние снежного покрова и степень покрытия местности в баллах.